SBI7520 FSIA-OOMS

Flight info

Callsign SBI7520
Flight time 4h 11m
Altitude 37000
Route FSIA N0440F370 ROUT1A ROUTY T123 UDLET UM314 SUHIL R401 DEDSO P316 RADAX RADA1U NONKA M15ER CF26R FF26R RW26R OOMS
Aircraft B738/M-SDGIWZ/S

Departure

Time 2026-04-25 22:46
Airport Seychelles International Airport (FSIA)

Arrival

Time 2026-04-26 02:57
Airport Muscat International Airport (OOMS)
Time Latitude Longitude Altitude Speed Heading
2026-04-25 21:54 -4.66821 55.50858 18 ft 0 kts 213°
2026-04-25 22:38 -4.66817 55.50861 18 ft 2 kts 212°
2026-04-25 22:39 -4.66797 55.50874 18 ft 4 kts 212°
2026-04-25 22:39 -4.66784 55.50899 18 ft 4 kts 285°
2026-04-25 22:39 -4.66786 55.50906 18 ft 0 kts 285°
2026-04-25 22:39 -4.66783 55.50893 18 ft 4 kts 283°
2026-04-25 22:40 -4.66758 55.50851 18 ft 9 kts 341°
2026-04-25 22:40 -4.66711 55.50910 18 ft 16 kts 107°
2026-04-25 22:40 -4.66760 55.51012 18 ft 12 kts 90°
2026-04-25 22:40 -4.66704 55.51072 18 ft 12 kts 41°
2026-04-25 22:41 -4.66711 55.51154 18 ft 14 kts 124°
2026-04-25 22:41 -4.66779 55.51250 18 ft 19 kts 126°
2026-04-25 22:41 -4.66863 55.51371 18 ft 22 kts 125°
2026-04-25 22:41 -4.66958 55.51507 18 ft 25 kts 125°
2026-04-25 22:42 -4.67067 55.51662 18 ft 28 kts 124°
2026-04-25 22:42 -4.67185 55.51831 18 ft 30 kts 125°
2026-04-25 22:42 -4.67310 55.52010 18 ft 32 kts 125°
2026-04-25 22:42 -4.67444 55.52202 18 ft 35 kts 125°
2026-04-25 22:43 -4.67587 55.52405 18 ft 36 kts 125°
2026-04-25 22:43 -4.67737 55.52620 18 ft 38 kts 125°
2026-04-25 22:43 -4.67894 55.52845 18 ft 39 kts 125°
2026-04-25 22:43 -4.68046 55.53061 18 ft 29 kts 126°
2026-04-25 22:44 -4.68144 55.53151 18 ft 16 kts 166°
2026-04-25 22:44 -4.68245 55.53175 18 ft 13 kts 162°
2026-04-25 22:44 -4.68268 55.53236 18 ft 10 kts 48°
2026-04-25 22:44 -4.68213 55.53268 18 ft 8 kts 360°
2026-04-25 22:45 -4.68160 55.53223 18 ft 21 kts 305°
2026-04-25 22:45 -4.67926 55.52889 18 ft 95 kts 305°
2026-04-25 22:45 -4.67410 55.52152 18 ft 156 kts 304°
2026-04-25 22:45 -4.66695 55.51157 173 ft 189 kts 305°
2026-04-25 22:46 -4.65877 55.50074 621 ft 205 kts 310°
2026-04-25 22:46 -4.64840 55.49095 1333 ft 205 kts 327°
2026-04-25 22:46 -4.63506 55.48721 1958 ft 206 kts 356°
2026-04-25 22:46 -4.62018 55.48586 2184 ft 226 kts 348°
2026-04-25 22:47 -4.60391 55.48272 2480 ft 246 kts 348°
2026-04-25 22:47 -4.58674 55.47982 3107 ft 257 kts 351°
2026-04-25 22:47 -4.56874 55.47691 3688 ft 270 kts 349°
2026-04-25 22:47 -4.55020 55.47389 4412 ft 277 kts 349°
2026-04-25 22:48 -4.53132 55.47098 5201 ft 279 kts 352°
2026-04-25 22:48 -4.51160 55.47002 5869 ft 287 kts 359°
2026-04-25 22:48 -4.49163 55.46990 6643 ft 289 kts 358°
2026-04-25 22:48 -4.47176 55.46951 7407 ft 290 kts 356°
2026-04-25 22:49 -4.45145 55.46907 7998 ft 297 kts 357°
2026-04-25 22:49 -4.43099 55.46864 8783 ft 296 kts 357°
2026-04-25 22:49 -4.41032 55.46822 9402 ft 301 kts 357°
2026-04-25 22:49 -4.38941 55.46782 10068 ft 303 kts 356°
2026-04-25 22:50 -4.36777 55.46735 10256 ft 323 kts 356°
2026-04-25 22:50 -4.34466 55.46687 10349 ft 344 kts 357°
2026-04-25 22:50 -4.32017 55.46637 10561 ft 359 kts 356°
2026-04-25 22:50 -4.29509 55.46587 11072 ft 365 kts 356°
2026-04-25 22:51 -4.26983 55.46535 11631 ft 367 kts 356°
2026-04-25 22:51 -4.24425 55.46483 12193 ft 370 kts 356°
2026-04-25 22:51 -4.21848 55.46430 12744 ft 372 kts 356°
2026-04-25 22:51 -4.19280 55.46377 13301 ft 373 kts 356°
2026-04-25 22:52 -4.16674 55.46328 13821 ft 375 kts 357°
2026-04-25 22:52 -4.14098 55.46325 14327 ft 377 kts 358°
2026-04-25 22:52 -4.11465 55.46337 14822 ft 379 kts 358°
2026-04-25 22:52 -4.09699 55.46341 15139 ft 380 kts 358°
2026-04-25 22:53 -4.06170 55.46341 15773 ft 382 kts 358°
2026-04-25 22:53 -4.03519 55.46343 16247 ft 383 kts 358°
2026-04-25 22:53 -4.00851 55.46344 16682 ft 385 kts 358°
2026-04-25 22:53 -3.98183 55.46344 17113 ft 387 kts 358°
2026-04-25 22:54 -3.95491 55.46345 17524 ft 388 kts 358°
2026-04-25 22:54 -3.92799 55.46346 17927 ft 390 kts 358°
2026-04-25 22:54 -3.90114 55.46346 18312 ft 391 kts 358°
2026-04-25 22:54 -3.87401 55.46347 18686 ft 393 kts 358°
2026-04-25 22:55 -3.84655 55.46348 19058 ft 395 kts 358°
2026-04-25 22:55 -3.81923 55.46349 19415 ft 396 kts 358°
2026-04-25 22:55 -3.79165 55.46350 19762 ft 398 kts 358°
2026-04-25 22:55 -3.76388 55.46350 20106 ft 399 kts 358°
2026-04-25 22:56 -3.73636 55.46351 20428 ft 401 kts 358°
2026-04-25 22:56 -3.70845 55.46352 20743 ft 402 kts 358°
2026-04-25 22:56 -3.68077 55.46352 21059 ft 403 kts 358°
2026-04-25 22:56 -3.65253 55.46353 21355 ft 405 kts 358°
2026-04-25 22:57 -3.62447 55.46354 21660 ft 406 kts 359°
2026-04-25 22:57 -3.59640 55.46354 21939 ft 408 kts 359°
2026-04-25 22:57 -3.56789 55.46355 22207 ft 409 kts 359°
2026-04-25 22:57 -3.53957 55.46355 22485 ft 411 kts 359°
2026-04-25 22:58 -3.51101 55.46356 22751 ft 412 kts 359°
2026-04-25 22:58 -3.48260 55.46356 23003 ft 413 kts 359°
2026-04-25 22:58 -3.45371 55.46357 23239 ft 415 kts 359°
2026-04-25 22:58 -3.42489 55.46357 23493 ft 416 kts 359°
2026-04-25 22:59 -3.39616 55.46358 23740 ft 417 kts 359°
2026-04-25 22:59 -3.36701 55.46359 23956 ft 418 kts 359°
2026-04-25 22:59 -3.33801 55.46359 24192 ft 419 kts 359°
2026-04-25 22:59 -3.30906 55.46360 24399 ft 421 kts 359°
2026-04-25 23:00 -3.27982 55.46360 24616 ft 422 kts 359°
2026-04-25 23:00 -3.25056 55.46361 24831 ft 423 kts 359°
2026-04-25 23:00 -3.22103 55.46361 25010 ft 425 kts 359°
2026-04-25 23:00 -3.19185 55.46362 25219 ft 425 kts 359°
2026-04-25 23:01 -3.16223 55.46363 25415 ft 426 kts 359°
2026-04-25 23:01 -3.13238 55.46363 25590 ft 428 kts 359°
2026-04-25 23:01 -3.10304 55.46364 25782 ft 429 kts 359°
2026-04-25 23:01 -3.07320 55.46364 25956 ft 430 kts 359°
2026-04-25 23:02 -3.04348 55.46365 26129 ft 431 kts 359°
2026-04-25 23:02 -3.01338 55.46365 26304 ft 432 kts 360°
2026-04-25 23:02 -2.98369 55.46366 26460 ft 433 kts 360°
2026-04-25 23:02 -2.95353 55.46366 26630 ft 433 kts 360°
2026-04-25 23:03 -2.92332 55.46367 26796 ft 434 kts
2026-04-25 23:03 -2.89311 55.46368 26941 ft 435 kts
2026-04-25 23:03 -2.86317 55.46368 27089 ft 436 kts
2026-04-25 23:03 -2.83286 55.46370 27249 ft 437 kts
2026-04-25 23:04 -2.80252 55.46371 27369 ft 439 kts
2026-04-25 23:04 -2.78222 55.46372 27468 ft 439 kts
2026-04-25 23:04 -2.74161 55.46372 27669 ft 440 kts
2026-04-25 23:04 -2.71101 55.46373 27774 ft 441 kts
2026-04-25 23:05 -2.68053 55.46374 27913 ft 442 kts
2026-04-25 23:05 -2.64968 55.46374 28039 ft 443 kts
2026-04-25 23:05 -2.61894 55.46375 28166 ft 444 kts
2026-04-25 23:05 -2.58817 55.46376 28303 ft 444 kts
2026-04-25 23:06 -2.52645 55.46377 28515 ft 446 kts
2026-04-25 23:06 -2.49560 55.46377 28630 ft 447 kts
2026-04-25 23:06 -2.46453 55.46378 28729 ft 448 kts
2026-04-25 23:07 -2.43339 55.46379 28841 ft 448 kts
2026-04-25 23:07 -2.40264 55.46379 28926 ft 449 kts
2026-04-25 23:07 -2.37139 55.46380 29045 ft 449 kts
2026-04-25 23:07 -2.34020 55.46381 29122 ft 450 kts
2026-04-25 23:08 -2.30912 55.46381 29266 ft 450 kts
2026-04-25 23:08 -2.27792 55.46381 29326 ft 451 kts
2026-04-25 23:08 -2.24636 55.46382 29549 ft 449 kts
2026-04-25 23:08 -2.21543 55.46382 29742 ft 447 kts
2026-04-25 23:09 -2.15341 55.46384 29965 ft 447 kts
2026-04-25 23:09 -2.12233 55.46384 30104 ft 447 kts
2026-04-25 23:09 -2.09143 55.46385 30217 ft 447 kts
2026-04-25 23:10 -2.06061 55.46386 30323 ft 447 kts
2026-04-25 23:10 -2.02971 55.46386 30464 ft 446 kts
2026-04-25 23:10 -1.99858 55.46387 30581 ft 446 kts
2026-04-25 23:10 -1.96806 55.46387 30693 ft 446 kts
2026-04-25 23:11 -1.93700 55.46388 30800 ft 446 kts
2026-04-25 23:11 -1.90631 55.46388 30935 ft 445 kts
2026-04-25 23:11 -1.84431 55.46390 31131 ft 445 kts
2026-04-25 23:12 -1.81374 55.46391 31258 ft 445 kts
2026-04-25 23:12 -1.78280 55.46392 31356 ft 445 kts
2026-04-25 23:12 -1.75167 55.46393 31482 ft 444 kts
2026-04-25 23:12 -1.72101 55.46394 31611 ft 444 kts
2026-04-25 23:13 -1.65946 55.46395 31816 ft 443 kts
2026-04-25 23:13 -1.59790 55.46396 31984 ft 444 kts
2026-04-25 23:14 -1.56747 55.46397 32093 ft 443 kts
2026-04-25 23:14 -1.53658 55.46397 32223 ft 442 kts
2026-04-25 23:14 -1.47540 55.46399 32393 ft 443 kts
2026-04-25 23:15 -1.41370 55.46400 32570 ft 442 kts
2026-04-25 23:15 -1.38333 55.46400 32672 ft 442 kts
2026-04-25 23:15 -1.35269 55.46401 32767 ft 442 kts
2026-04-25 23:16 -1.29126 55.46402 32944 ft 441 kts
2026-04-25 23:16 -1.23036 55.46403 33107 ft 441 kts
2026-04-25 23:17 -1.16901 55.46404 33267 ft 441 kts
2026-04-25 23:17 -1.10808 55.46405 33445 ft 440 kts
2026-04-25 23:18 -1.04696 55.46407 33553 ft 441 kts
2026-04-25 23:18 -0.98590 55.46408 33657 ft 442 kts
2026-04-25 23:19 -0.92458 55.46231 33759 ft 443 kts 355°
2026-04-25 23:19 -0.86351 55.45704 33863 ft 443 kts 355°
2026-04-25 23:20 -0.80191 55.45249 33967 ft 444 kts 356°
2026-04-25 23:20 -0.74043 55.44793 34079 ft 445 kts 356°
2026-04-25 23:21 -0.67905 55.44342 34198 ft 445 kts 356°
2026-04-25 23:21 -0.61770 55.43893 34321 ft 445 kts 356°
2026-04-25 23:22 -0.55622 55.43444 34448 ft 444 kts 356°
2026-04-25 23:23 -0.46397 55.42773 34638 ft 444 kts 356°
2026-04-25 23:23 -0.40293 55.42329 34752 ft 443 kts 356°
2026-04-25 23:24 -0.34145 55.41882 34853 ft 443 kts 356°
2026-04-25 23:24 -0.28025 55.41436 34967 ft 443 kts 356°
2026-04-25 23:25 -0.21902 55.40991 35085 ft 442 kts 356°
2026-04-25 23:25 -0.15806 55.40548 35209 ft 441 kts 356°
2026-04-25 23:26 -0.09722 55.40106 35312 ft 441 kts 356°
2026-04-25 23:26 -0.03599 55.39661 35413 ft 441 kts 356°
2026-04-25 23:27 0.02456 55.39220 35515 ft 440 kts 356°
2026-04-25 23:27 0.08532 55.38779 35622 ft 439 kts 356°
2026-04-25 23:28 0.14607 55.38337 35722 ft 439 kts 356°
2026-04-25 23:28 0.20702 55.37895 35827 ft 438 kts 356°
2026-04-25 23:29 0.26758 55.37455 35930 ft 438 kts 356°
2026-04-25 23:29 0.32778 55.37018 36030 ft 437 kts 356°
2026-04-25 23:30 0.38806 55.36580 36130 ft 436 kts 356°
2026-04-25 23:30 0.44863 55.36140 36230 ft 436 kts 356°
2026-04-25 23:31 0.50851 55.35704 36329 ft 435 kts 356°
2026-04-25 23:31 0.56873 55.35267 36430 ft 434 kts 356°
2026-04-25 23:32 0.62849 55.34832 36529 ft 433 kts 356°
2026-04-25 23:32 0.68831 55.34397 36629 ft 432 kts 356°
2026-04-25 23:33 0.74788 55.33964 36729 ft 431 kts 356°
2026-04-25 23:33 0.77743 55.33749 36833 ft 429 kts 356°
2026-04-25 23:33 0.80731 55.33532 36831 ft 430 kts 356°
2026-04-25 23:34 0.86697 55.33099 36831 ft 431 kts 356°
2026-04-25 23:34 0.92663 55.32665 36831 ft 432 kts 356°
2026-04-25 23:35 0.98650 55.32230 36832 ft 434 kts 356°
2026-04-25 23:35 1.04613 55.31796 36831 ft 434 kts 356°
2026-04-25 23:36 1.10648 55.31361 36829 ft 435 kts 357°
2026-04-25 23:36 1.16663 55.30953 36831 ft 437 kts 358°
2026-04-25 23:37 1.22693 55.30537 36830 ft 438 kts 357°
2026-04-25 23:37 1.28774 55.30099 36830 ft 439 kts 357°
2026-04-25 23:38 1.34832 55.29655 36831 ft 439 kts 357°
2026-04-25 23:38 1.40897 55.29238 36830 ft 440 kts 357°
2026-04-25 23:39 1.47015 55.28789 36830 ft 441 kts 357°
2026-04-25 23:39 1.53105 55.28295 36830 ft 442 kts 356°
2026-04-25 23:40 1.59194 55.27796 36830 ft 442 kts 357°
2026-04-25 23:40 1.65286 55.27338 36831 ft 441 kts 358°
2026-04-25 23:41 1.71412 55.26931 36830 ft 442 kts 358°
2026-04-25 23:41 1.77517 55.26521 36831 ft 442 kts 357°
2026-04-25 23:42 1.83587 55.26032 36830 ft 442 kts 356°
2026-04-25 23:42 1.89718 55.25549 36832 ft 442 kts 357°
2026-04-25 23:43 1.95795 55.25093 36831 ft 441 kts 357°
2026-04-25 23:43 2.01901 55.24635 36831 ft 442 kts 357°
2026-04-25 23:44 2.08029 55.24192 36830 ft 442 kts 357°
2026-04-25 23:44 2.14131 55.23737 36830 ft 441 kts 357°
2026-04-25 23:45 2.20202 55.23296 36830 ft 440 kts 357°
2026-04-25 23:45 2.26281 55.22848 36832 ft 441 kts 357°
2026-04-25 23:46 2.32390 55.22397 36831 ft 441 kts 357°
2026-04-25 23:46 2.38482 55.21945 36831 ft 440 kts 357°
2026-04-25 23:47 2.44576 55.21496 36832 ft 441 kts 357°
2026-04-25 23:47 2.50647 55.21060 36832 ft 441 kts 357°
2026-04-25 23:48 2.56756 55.20618 36831 ft 441 kts 357°
2026-04-25 23:48 2.62867 55.20189 36831 ft 442 kts 358°
2026-04-25 23:49 2.68961 55.19741 36830 ft 441 kts 357°
2026-04-25 23:49 2.75035 55.19289 36830 ft 440 kts 357°
2026-04-25 23:50 2.81130 55.18846 36830 ft 439 kts 357°
2026-04-25 23:50 2.87205 55.18417 36831 ft 439 kts 358°
2026-04-25 23:51 2.93264 55.18026 36831 ft 439 kts 358°
2026-04-25 23:51 2.99361 55.17616 36830 ft 440 kts 358°
2026-04-25 23:52 3.05437 55.17190 36831 ft 442 kts 358°
2026-04-25 23:52 3.11545 55.16728 36831 ft 443 kts 358°
2026-04-25 23:53 3.17675 55.16269 36831 ft 445 kts 358°
2026-04-25 23:53 3.23833 55.15815 36831 ft 446 kts 358°
2026-04-25 23:54 3.30012 55.15361 36831 ft 447 kts 358°
2026-04-25 23:54 3.36209 55.14906 36831 ft 448 kts 358°
2026-04-25 23:55 3.42397 55.14453 36831 ft 450 kts 357°
2026-04-25 23:55 3.48628 55.13997 36831 ft 451 kts 357°
2026-04-25 23:56 3.54855 55.13542 36831 ft 452 kts 357°
2026-04-25 23:56 3.61117 55.13084 36830 ft 452 kts 357°
2026-04-25 23:57 3.67377 55.12626 36831 ft 453 kts 357°
2026-04-25 23:57 3.73639 55.12168 36830 ft 453 kts 357°
2026-04-25 23:58 3.79872 55.11712 36831 ft 453 kts 357°
2026-04-25 23:58 3.86172 55.11251 36831 ft 453 kts 357°
2026-04-25 23:59 3.92419 55.10794 36831 ft 453 kts 356°
2026-04-25 23:59 3.98700 55.10334 36831 ft 454 kts 356°
2026-04-26 00:00 4.04960 55.09876 36831 ft 454 kts 356°
2026-04-26 00:00 4.11212 55.09419 36830 ft 453 kts 356°
2026-04-26 00:01 4.17488 55.08959 36831 ft 453 kts 356°
2026-04-26 00:01 4.23732 55.08502 36831 ft 453 kts 356°
2026-04-26 00:02 4.29996 55.08044 36831 ft 453 kts 356°
2026-04-26 00:02 4.36255 55.07586 36831 ft 453 kts 356°
2026-04-26 00:03 4.42538 55.07126 36831 ft 453 kts 356°
2026-04-26 00:03 4.48779 55.06669 36830 ft 453 kts 356°
2026-04-26 00:04 4.55058 55.06209 36831 ft 453 kts 356°
2026-04-26 00:04 4.61297 55.05753 36860 ft 452 kts 356°
2026-04-26 00:05 4.67559 55.05294 36857 ft 452 kts 356°
2026-04-26 00:05 4.73769 55.04839 36858 ft 452 kts 356°
2026-04-26 00:06 4.80045 55.04379 36858 ft 452 kts 356°
2026-04-26 00:06 4.86262 55.03923 36857 ft 451 kts 355°
2026-04-26 00:07 4.92518 55.03464 36858 ft 451 kts 355°
2026-04-26 00:07 4.98748 55.03008 36857 ft 452 kts 356°
2026-04-26 00:08 5.04996 55.02549 36857 ft 453 kts 356°
2026-04-26 00:08 5.11257 55.02090 36858 ft 454 kts 357°
2026-04-26 00:09 5.17521 55.01630 36857 ft 452 kts 357°
2026-04-26 00:09 5.23766 55.01172 36858 ft 452 kts 357°
2026-04-26 00:10 5.29985 55.00716 36858 ft 452 kts 357°
2026-04-26 00:10 5.36255 55.00256 36858 ft 453 kts 357°
2026-04-26 00:11 5.42532 54.99884 36857 ft 452 kts
2026-04-26 00:11 5.48788 54.99959 36858 ft 452 kts
2026-04-26 00:12 5.55028 54.99977 36858 ft 452 kts
2026-04-26 00:12 5.61284 54.99986 36858 ft 452 kts
2026-04-26 00:13 5.67542 54.99993 36858 ft 452 kts
2026-04-26 00:13 5.73800 54.99996 36858 ft 452 kts
2026-04-26 00:14 5.80082 54.99998 36858 ft 452 kts
2026-04-26 00:14 5.86307 54.99999 36858 ft 452 kts
2026-04-26 00:15 5.92591 55.00000 36858 ft 452 kts
2026-04-26 00:15 5.98863 55.00000 36858 ft 452 kts
2026-04-26 00:16 6.05094 55.00000 36857 ft 452 kts
2026-04-26 00:16 6.11364 55.00000 36866 ft 451 kts
2026-04-26 00:17 6.17618 55.00000 36887 ft 451 kts
2026-04-26 00:17 6.23877 55.00000 36908 ft 451 kts
2026-04-26 00:18 6.30103 55.00000 36912 ft 451 kts
2026-04-26 00:18 6.36388 55.00000 36912 ft 451 kts
2026-04-26 00:19 6.42645 55.00000 36912 ft 451 kts
2026-04-26 00:19 6.48880 55.00000 36912 ft 451 kts
2026-04-26 00:20 6.55124 55.00000 36912 ft 451 kts
2026-04-26 00:20 6.61271 55.00000 36912 ft 451 kts
2026-04-26 00:21 6.67519 55.00000 36912 ft 451 kts
2026-04-26 00:21 6.73759 55.00000 36911 ft 451 kts
2026-04-26 00:22 6.79999 55.00000 36912 ft 451 kts
2026-04-26 00:22 6.86285 55.00000 36911 ft 451 kts
2026-04-26 00:23 6.92535 55.00000 36912 ft 452 kts
2026-04-26 00:23 6.98805 55.00000 36912 ft 454 kts
2026-04-26 00:24 7.05075 55.00000 36912 ft 456 kts
2026-04-26 00:24 7.11407 55.00001 36912 ft 457 kts
2026-04-26 00:25 7.17737 55.00000 36911 ft 456 kts
2026-04-26 00:25 7.24047 55.00000 36912 ft 456 kts
2026-04-26 00:26 7.30354 55.00000 36912 ft 456 kts
2026-04-26 00:26 7.36669 55.00000 36912 ft 456 kts
2026-04-26 00:27 7.42997 55.00000 36911 ft 456 kts
2026-04-26 00:27 7.49319 55.00000 36912 ft 456 kts
2026-04-26 00:28 7.55627 55.00000 36911 ft 456 kts
2026-04-26 00:28 7.61967 55.00000 36912 ft 456 kts
2026-04-26 00:29 7.68269 55.00000 36912 ft 456 kts
2026-04-26 00:29 7.74616 55.00000 36912 ft 456 kts
2026-04-26 00:30 7.80925 55.00000 36912 ft 456 kts
2026-04-26 00:30 7.87240 55.00000 36912 ft 456 kts
2026-04-26 00:31 7.93561 55.00000 36912 ft 456 kts
2026-04-26 00:31 7.99873 55.00000 36912 ft 456 kts
2026-04-26 00:32 8.06189 55.00000 36912 ft 456 kts
2026-04-26 00:32 8.15662 55.00000 36912 ft 456 kts
2026-04-26 00:33 8.21991 55.00001 36912 ft 456 kts
2026-04-26 00:33 8.28301 55.00000 36912 ft 456 kts
2026-04-26 00:34 8.34657 55.00000 36912 ft 456 kts
2026-04-26 00:34 8.40960 55.00000 36912 ft 456 kts
2026-04-26 00:35 8.47270 55.00000 36911 ft 455 kts
2026-04-26 00:35 8.53573 55.00000 36912 ft 455 kts
2026-04-26 00:36 8.59872 55.00000 36912 ft 455 kts
2026-04-26 00:36 8.66187 55.00000 36912 ft 455 kts
2026-04-26 00:37 8.72514 55.00000 36912 ft 455 kts
2026-04-26 00:37 8.78793 55.00000 36912 ft 455 kts
2026-04-26 00:38 8.85115 55.00000 36912 ft 455 kts
2026-04-26 00:38 8.91447 55.00000 36912 ft 455 kts
2026-04-26 00:39 8.97716 55.00000 36912 ft 455 kts
2026-04-26 00:39 9.04032 55.00000 36912 ft 453 kts
2026-04-26 00:40 9.10304 55.00000 36912 ft 450 kts
2026-04-26 00:40 9.16528 55.00000 36912 ft 448 kts
2026-04-26 00:41 9.22739 55.00000 36912 ft 449 kts
2026-04-26 00:41 9.28943 55.00000 36912 ft 450 kts
2026-04-26 00:42 9.35182 55.00000 36912 ft 450 kts
2026-04-26 00:42 9.41404 55.00000 36912 ft 450 kts
2026-04-26 00:43 9.47664 55.00000 36912 ft 449 kts
2026-04-26 00:43 9.53879 55.00000 36912 ft 450 kts
2026-04-26 00:44 9.60100 55.00000 36912 ft 450 kts
2026-04-26 00:44 9.66352 55.00000 36912 ft 450 kts
2026-04-26 00:45 9.72554 55.00000 36912 ft 450 kts
2026-04-26 00:45 9.78797 55.00000 36912 ft 450 kts
2026-04-26 00:46 9.85049 55.00000 36912 ft 450 kts
2026-04-26 00:46 9.91262 55.00000 36912 ft 450 kts
2026-04-26 00:47 9.97509 55.00000 36912 ft 450 kts
2026-04-26 00:47 10.03709 55.00000 36912 ft 450 kts
2026-04-26 00:48 10.09975 55.00000 36912 ft 450 kts
2026-04-26 00:48 10.16206 55.00000 36912 ft 450 kts
2026-04-26 00:49 10.22410 55.00000 36912 ft 450 kts
2026-04-26 00:49 10.28634 55.00000 36912 ft 450 kts
2026-04-26 00:50 10.34864 55.00000 36912 ft 450 kts
2026-04-26 00:50 10.41110 55.00000 36912 ft 450 kts
2026-04-26 00:51 10.47326 55.00000 36912 ft 450 kts
2026-04-26 00:51 10.53547 55.00000 36912 ft 449 kts
2026-04-26 00:52 10.59792 55.00000 36912 ft 449 kts
2026-04-26 00:52 10.66005 55.00000 36912 ft 449 kts
2026-04-26 00:53 10.72225 55.00000 36912 ft 449 kts
2026-04-26 00:53 10.78450 55.00000 36912 ft 449 kts
2026-04-26 00:54 10.84675 55.00000 36912 ft 449 kts
2026-04-26 00:54 10.90900 55.00000 36912 ft 449 kts
2026-04-26 00:55 10.97099 55.00000 36912 ft 448 kts
2026-04-26 00:55 11.03295 55.00000 36912 ft 447 kts
2026-04-26 00:56 11.09519 55.00000 36911 ft 447 kts
2026-04-26 00:56 11.15701 55.00000 36912 ft 447 kts
2026-04-26 00:57 11.21884 55.00000 36912 ft 447 kts
2026-04-26 00:57 11.28081 55.00000 36911 ft 447 kts
2026-04-26 00:58 11.34271 55.00000 36912 ft 447 kts
2026-04-26 00:58 11.40475 55.00000 36912 ft 447 kts
2026-04-26 00:59 11.46677 55.00000 36912 ft 447 kts
2026-04-26 00:59 11.52863 55.00000 36912 ft 447 kts
2026-04-26 01:00 11.59051 55.00000 36912 ft 447 kts
2026-04-26 01:00 11.65248 55.00000 36912 ft 447 kts
2026-04-26 01:01 11.71438 55.00000 36911 ft 447 kts
2026-04-26 01:01 11.77648 55.00000 36912 ft 447 kts
2026-04-26 01:02 11.83822 55.00000 36912 ft 447 kts
2026-04-26 01:02 11.90051 55.00000 36911 ft 447 kts
2026-04-26 01:03 11.96215 55.00000 36912 ft 447 kts
2026-04-26 01:03 12.02415 55.00229 36913 ft 444 kts 10°
2026-04-26 01:04 12.08482 55.01059 36912 ft 444 kts 11°
2026-04-26 01:04 12.14604 55.01813 36912 ft 444 kts 10°
2026-04-26 01:05 12.20717 55.02575 36911 ft 444 kts 10°
2026-04-26 01:05 12.26846 55.03339 36912 ft 444 kts 10°
2026-04-26 01:06 12.32948 55.04099 36912 ft 444 kts 10°
2026-04-26 01:06 12.39047 55.04859 36912 ft 445 kts 10°
2026-04-26 01:07 12.45166 55.05622 36912 ft 445 kts 10°
2026-04-26 01:07 12.51325 55.06391 36912 ft 445 kts 10°
2026-04-26 01:08 12.57424 55.07152 36911 ft 445 kts 10°
2026-04-26 01:08 12.63546 55.07916 36912 ft 444 kts 10°
2026-04-26 01:09 12.69650 55.08678 36912 ft 445 kts 10°
2026-04-26 01:09 12.75790 55.09446 36912 ft 445 kts 10°
2026-04-26 01:10 12.81890 55.10209 36912 ft 445 kts 10°
2026-04-26 01:10 12.88040 55.10978 36912 ft 445 kts 10°
2026-04-26 01:11 12.94144 55.11742 36912 ft 445 kts 10°
2026-04-26 01:11 13.00254 55.12507 36912 ft 445 kts 10°
2026-04-26 01:12 13.06373 55.13273 36912 ft 443 kts 10°
2026-04-26 01:12 13.12467 55.14037 36912 ft 441 kts 10°
2026-04-26 01:13 13.18522 55.14796 36912 ft 440 kts 10°
2026-04-26 01:13 13.24573 55.15555 36912 ft 440 kts 10°
2026-04-26 01:14 13.30608 55.16313 36912 ft 440 kts 10°
2026-04-26 01:14 13.36686 55.17076 36912 ft 440 kts 10°
2026-04-26 01:15 13.42745 55.17837 36912 ft 440 kts 10°
2026-04-26 01:15 13.48795 55.18598 36912 ft 440 kts 10°
2026-04-26 01:16 13.54845 55.19359 36912 ft 440 kts 10°
2026-04-26 01:16 13.60857 55.20115 36912 ft 440 kts 10°
2026-04-26 01:17 13.66920 55.20879 36912 ft 440 kts 10°
2026-04-26 01:17 13.72976 55.21642 36912 ft 440 kts 10°
2026-04-26 01:18 13.78999 55.22401 36912 ft 440 kts 10°
2026-04-26 01:18 13.85061 55.23166 36912 ft 439 kts 10°
2026-04-26 01:19 13.91076 55.23924 36911 ft 439 kts
2026-04-26 01:19 13.97160 55.24679 36912 ft 439 kts
2026-04-26 01:20 14.03188 55.25425 36912 ft 439 kts
2026-04-26 01:20 14.09241 55.26176 36912 ft 439 kts
2026-04-26 01:21 14.15268 55.26924 36912 ft 439 kts
2026-04-26 01:21 14.21314 55.27674 36912 ft 440 kts
2026-04-26 01:22 14.27369 55.28427 36911 ft 439 kts
2026-04-26 01:22 14.33417 55.29179 36912 ft 439 kts
2026-04-26 01:23 14.39485 55.29933 36912 ft 439 kts
2026-04-26 01:23 14.45495 55.30682 36912 ft 440 kts
2026-04-26 01:24 14.51550 55.31436 36912 ft 440 kts
2026-04-26 01:24 14.57601 55.32190 36912 ft 439 kts
2026-04-26 01:25 14.63635 55.32943 36912 ft 439 kts
2026-04-26 01:25 14.69671 55.33696 36912 ft 439 kts
2026-04-26 01:26 14.75736 55.34452 36912 ft 439 kts
2026-04-26 01:26 14.81769 55.35206 36911 ft 439 kts
2026-04-26 01:27 14.87793 55.35959 36912 ft 439 kts
2026-04-26 01:27 14.93828 55.36714 36911 ft 441 kts
2026-04-26 01:28 14.99934 55.37478 36912 ft 445 kts
2026-04-26 01:28 15.06082 55.38233 36912 ft 448 kts
2026-04-26 01:29 15.12281 55.39000 36912 ft 450 kts
2026-04-26 01:29 15.18442 55.39770 36911 ft 449 kts
2026-04-26 01:30 15.24638 55.40529 36912 ft 449 kts
2026-04-26 01:30 15.30798 55.41278 36911 ft 449 kts
2026-04-26 01:31 15.36972 55.42040 36912 ft 449 kts
2026-04-26 01:31 15.43160 55.42796 36912 ft 448 kts
2026-04-26 01:32 15.49297 55.43563 36911 ft 449 kts
2026-04-26 01:32 15.55499 55.44331 36912 ft 449 kts
2026-04-26 01:33 15.61674 55.45091 36912 ft 448 kts
2026-04-26 01:33 15.67827 55.45856 36912 ft 449 kts
2026-04-26 01:34 15.74010 55.46621 36912 ft 448 kts
2026-04-26 01:34 15.80165 55.47371 36911 ft 448 kts
2026-04-26 01:35 15.86354 55.48164 36911 ft 449 kts
2026-04-26 01:35 15.92501 55.48953 36912 ft 449 kts
2026-04-26 01:36 15.98671 55.49705 36912 ft 448 kts
2026-04-26 01:37 16.07953 55.50836 36912 ft 449 kts
2026-04-26 01:37 16.14111 55.51597 36911 ft 448 kts
2026-04-26 01:38 16.20291 55.52358 36913 ft 448 kts
2026-04-26 01:38 16.26426 55.53151 36911 ft 449 kts 10°
2026-04-26 01:39 16.32598 55.53957 36911 ft 448 kts
2026-04-26 01:39 16.38781 55.54740 36912 ft 449 kts
2026-04-26 01:40 16.44934 55.55517 36911 ft 448 kts
2026-04-26 01:40 16.51111 55.56287 36912 ft 448 kts
2026-04-26 01:41 16.57302 55.57020 36911 ft 449 kts
2026-04-26 01:41 16.63479 55.57756 36911 ft 447 kts
2026-04-26 01:42 16.69638 55.58540 36912 ft 448 kts
2026-04-26 01:42 16.75813 55.59336 36912 ft 449 kts
2026-04-26 01:43 16.81945 55.60078 36911 ft 448 kts
2026-04-26 01:43 16.88110 55.60834 36912 ft 448 kts
2026-04-26 01:44 16.94285 55.61619 36912 ft 448 kts
2026-04-26 01:44 17.00445 55.62402 36913 ft 449 kts
2026-04-26 01:45 17.06625 55.63189 36912 ft 452 kts
2026-04-26 01:45 17.12834 55.63994 36912 ft 450 kts
2026-04-26 01:46 17.19037 55.64788 36911 ft 448 kts
2026-04-26 01:46 17.25174 55.65573 36912 ft 448 kts
2026-04-26 01:47 17.31335 55.66361 36912 ft 449 kts
2026-04-26 01:47 17.37510 55.67149 36912 ft 449 kts
2026-04-26 01:48 17.43698 55.67939 36912 ft 449 kts
2026-04-26 01:48 17.49885 55.68730 36912 ft 449 kts
2026-04-26 01:49 17.56039 55.69516 36912 ft 449 kts
2026-04-26 01:49 17.62234 55.70308 36912 ft 449 kts
2026-04-26 01:50 17.68393 55.71096 36912 ft 449 kts
2026-04-26 01:50 17.74552 55.71884 36912 ft 449 kts
2026-04-26 01:51 17.80720 55.72674 36912 ft 449 kts
2026-04-26 01:51 17.86878 55.73463 36912 ft 449 kts
2026-04-26 01:52 17.93074 55.74258 36912 ft 448 kts
2026-04-26 01:52 17.98889 55.75067 36910 ft 448 kts 12°
2026-04-26 01:53 18.04886 55.76641 36912 ft 448 kts 15°
2026-04-26 01:53 18.10906 55.78250 36912 ft 448 kts 14°
2026-04-26 01:54 18.16938 55.79841 36912 ft 448 kts 15°
2026-04-26 01:54 18.22940 55.81433 36912 ft 447 kts 15°
2026-04-26 01:55 18.28963 55.83030 36912 ft 447 kts 15°
2026-04-26 01:55 18.34949 55.84618 36912 ft 447 kts 15°
2026-04-26 01:56 18.40971 55.86217 36912 ft 447 kts 15°
2026-04-26 01:56 18.46982 55.87814 36912 ft 447 kts 15°
2026-04-26 01:57 18.52991 55.89411 36912 ft 447 kts 15°
2026-04-26 01:57 18.58982 55.91005 36912 ft 447 kts 15°
2026-04-26 01:58 18.65031 55.92616 36912 ft 447 kts 15°
2026-04-26 01:58 18.71002 55.94206 36912 ft 447 kts 15°
2026-04-26 01:59 18.77032 55.95814 36912 ft 447 kts 15°
2026-04-26 01:59 18.83035 55.97416 36911 ft 447 kts 15°
2026-04-26 02:00 18.89065 55.99026 36912 ft 448 kts 15°
2026-04-26 02:00 18.95042 56.00737 36912 ft 449 kts 19°
2026-04-26 02:01 19.00721 56.03435 36913 ft 451 kts 29°
2026-04-26 02:01 19.06215 56.06617 36911 ft 453 kts 28°
2026-04-26 02:02 19.11731 56.09750 36912 ft 452 kts 28°
2026-04-26 02:02 19.17222 56.12915 36912 ft 451 kts 28°
2026-04-26 02:03 19.22688 56.16077 36912 ft 451 kts 28°
2026-04-26 02:03 19.28186 56.19265 36912 ft 452 kts 29°
2026-04-26 02:04 19.33674 56.22454 36912 ft 452 kts 29°
2026-04-26 02:04 19.39165 56.25650 36912 ft 452 kts 29°
2026-04-26 02:05 19.44660 56.28851 36912 ft 451 kts 29°
2026-04-26 02:05 19.50117 56.32033 36912 ft 452 kts 29°
2026-04-26 02:06 19.55615 56.35242 36912 ft 451 kts 29°
2026-04-26 02:06 19.61093 56.38442 36939 ft 451 kts 29°
2026-04-26 02:07 19.66560 56.41638 36939 ft 451 kts 29°
2026-04-26 02:07 19.72031 56.44839 36939 ft 451 kts 29°
2026-04-26 02:08 19.77528 56.48058 36939 ft 451 kts 29°
2026-04-26 02:08 19.83001 56.51265 36939 ft 451 kts 29°
2026-04-26 02:09 19.88359 56.54633 36939 ft 451 kts 32°
2026-04-26 02:09 19.93648 56.58135 36939 ft 451 kts 31°
2026-04-26 02:10 19.98998 56.61623 36939 ft 451 kts 31°
2026-04-26 02:10 20.04323 56.65103 36913 ft 451 kts 32°
2026-04-26 02:11 20.09641 56.68576 36871 ft 451 kts 32°
2026-04-26 02:11 20.14963 56.72053 36839 ft 450 kts 32°
2026-04-26 02:12 20.20296 56.75542 36831 ft 450 kts 32°
2026-04-26 02:12 20.25613 56.79031 36831 ft 451 kts 32°
2026-04-26 02:13 20.30914 56.82510 36831 ft 451 kts 32°
2026-04-26 02:13 20.36235 56.86004 36831 ft 451 kts 32°
2026-04-26 02:14 20.41569 56.89511 36831 ft 451 kts 32°
2026-04-26 02:14 20.46896 56.93015 36831 ft 450 kts 32°
2026-04-26 02:15 20.52187 56.96498 36831 ft 450 kts 32°
2026-04-26 02:15 20.57515 57.00009 36831 ft 450 kts 32°
2026-04-26 02:16 20.62791 57.03488 36831 ft 449 kts 32°
2026-04-26 02:16 20.68112 57.07000 36831 ft 449 kts 32°
2026-04-26 02:17 20.73382 57.10481 36831 ft 449 kts 32°
2026-04-26 02:17 20.78701 57.13997 36831 ft 449 kts 32°
2026-04-26 02:18 20.83974 57.17486 36831 ft 449 kts 32°
2026-04-26 02:18 20.89249 57.20979 36831 ft 448 kts 32°
2026-04-26 02:19 20.94537 57.24484 36831 ft 448 kts 32°
2026-04-26 02:19 20.99819 57.27988 36831 ft 449 kts 31°
2026-04-26 02:20 21.05111 57.31501 36831 ft 451 kts 31°
2026-04-26 02:20 21.10434 57.35038 36831 ft 453 kts 31°
2026-04-26 02:21 21.15757 57.38577 36831 ft 452 kts 30°
2026-04-26 02:21 21.21097 57.42131 36831 ft 452 kts 30°
2026-04-26 02:22 21.26402 57.45665 36831 ft 452 kts 30°
2026-04-26 02:22 21.31729 57.49216 36830 ft 452 kts 30°
2026-04-26 02:23 21.37072 57.52781 36831 ft 452 kts 30°
2026-04-26 02:23 21.42369 57.56319 36831 ft 452 kts 30°
2026-04-26 02:24 21.47697 57.59880 36831 ft 452 kts 30°
2026-04-26 02:24 21.53032 57.63450 36831 ft 452 kts 30°
2026-04-26 02:25 21.58324 57.66993 36831 ft 452 kts 31°
2026-04-26 02:25 21.63654 57.70564 36831 ft 452 kts 31°
2026-04-26 02:26 21.68957 57.74120 36831 ft 452 kts 31°
2026-04-26 02:26 21.74294 57.77701 36831 ft 452 kts 31°
2026-04-26 02:27 21.79607 57.81269 36831 ft 452 kts 31°
2026-04-26 02:27 21.84916 57.84839 36831 ft 452 kts 31°
2026-04-26 02:28 21.90239 57.88421 36830 ft 452 kts 31°
2026-04-26 02:28 21.95517 57.91975 36831 ft 452 kts 31°
2026-04-26 02:29 22.00858 57.95576 36831 ft 452 kts 31°
2026-04-26 02:29 22.06180 57.99166 36830 ft 452 kts 31°
2026-04-26 02:30 22.11533 58.02614 36707 ft 449 kts 25°
2026-04-26 02:30 22.14364 58.03893 36116 ft 445 kts 16°
2026-04-26 02:30 22.17368 58.04651 35561 ft 439 kts
2026-04-26 02:30 22.20342 58.05079 35038 ft 435 kts
2026-04-26 02:31 22.23344 58.05512 34503 ft 431 kts
2026-04-26 02:31 22.26286 58.05981 33977 ft 428 kts
2026-04-26 02:31 22.29169 58.06441 33461 ft 425 kts
2026-04-26 02:31 22.32085 58.06889 32938 ft 421 kts
2026-04-26 02:32 22.34962 58.07324 32419 ft 418 kts
2026-04-26 02:32 22.37823 58.07757 31902 ft 414 kts
2026-04-26 02:32 22.40660 58.08185 31388 ft 411 kts
2026-04-26 02:32 22.43433 58.08602 30884 ft 407 kts
2026-04-26 02:33 22.46243 58.09024 30372 ft 404 kts
2026-04-26 02:33 22.48999 58.09437 29869 ft 400 kts
2026-04-26 02:33 22.51712 58.09844 29372 ft 397 kts
2026-04-26 02:33 22.54417 58.10249 28876 ft 393 kts
2026-04-26 02:34 22.57108 58.10652 28381 ft 389 kts
2026-04-26 02:34 22.59767 58.11050 27892 ft 385 kts
2026-04-26 02:34 22.62383 58.11441 27409 ft 382 kts
2026-04-26 02:34 22.64979 58.11830 26929 ft 378 kts
2026-04-26 02:35 22.67568 58.12217 26449 ft 374 kts
2026-04-26 02:35 22.70133 58.12602 25974 ft 370 kts
2026-04-26 02:35 22.72664 58.12981 25505 ft 367 kts
2026-04-26 02:35 22.75156 58.13354 25042 ft 363 kts
2026-04-26 02:36 22.77619 58.13723 24842 ft 352 kts
2026-04-26 02:36 22.80013 58.14083 24831 ft 348 kts
2026-04-26 02:36 22.82411 58.14441 24745 ft 349 kts
2026-04-26 02:36 22.84804 58.14800 24383 ft 345 kts
2026-04-26 02:37 22.87161 58.15154 23967 ft 348 kts
2026-04-26 02:37 22.89563 58.15514 23519 ft 346 kts
2026-04-26 02:37 22.91931 58.15870 23077 ft 343 kts
2026-04-26 02:37 22.94272 58.16219 22620 ft 341 kts 10°
2026-04-26 02:38 22.96620 58.16576 22211 ft 352 kts
2026-04-26 02:38 22.99117 58.16958 21747 ft 374 kts
2026-04-26 02:38 23.01694 58.17343 21247 ft 373 kts
2026-04-26 02:38 23.04225 58.17720 20773 ft 371 kts
2026-04-26 02:39 23.06764 58.18102 20298 ft 369 kts 10°
2026-04-26 02:39 23.09282 58.18480 19824 ft 366 kts 10°
2026-04-26 02:39 23.11811 58.18861 19347 ft 363 kts 10°
2026-04-26 02:39 23.14296 58.19235 18878 ft 360 kts 10°
2026-04-26 02:40 23.16732 58.19601 18417 ft 357 kts 10°
2026-04-26 02:40 23.19201 58.19974 17951 ft 354 kts 11°
2026-04-26 02:40 23.21620 58.20338 17494 ft 351 kts 11°
2026-04-26 02:40 23.23989 58.20696 17046 ft 348 kts 11°
2026-04-26 02:41 23.26373 58.21056 16586 ft 345 kts 11°
2026-04-26 02:41 23.28730 58.21412 16115 ft 343 kts 11°
2026-04-26 02:41 23.31080 58.21767 15667 ft 339 kts 11°
2026-04-26 02:41 23.33392 58.22116 15229 ft 336 kts 11°
2026-04-26 02:42 23.35704 58.22465 14794 ft 333 kts 11°
2026-04-26 02:42 23.37958 58.22807 14367 ft 329 kts 11°
2026-04-26 02:42 23.40216 58.23148 13941 ft 326 kts 11°
2026-04-26 02:42 23.42427 58.23483 13522 ft 322 kts 11°
2026-04-26 02:43 23.46397 58.25208 12705 ft 304 kts 47°
2026-04-26 02:43 23.47625 58.27020 12314 ft 296 kts 64°
2026-04-26 02:43 23.48270 58.29115 11913 ft 291 kts 82°
2026-04-26 02:44 23.48438 58.31289 11661 ft 282 kts 86°
2026-04-26 02:44 23.48601 58.33382 11323 ft 278 kts 85°
2026-04-26 02:44 23.48788 58.35498 10966 ft 282 kts 85°
2026-04-26 02:44 23.48964 58.37613 10591 ft 282 kts 85°
2026-04-26 02:45 23.49139 58.39709 10267 ft 277 kts 86°
2026-04-26 02:45 23.49310 58.41769 10118 ft 266 kts 86°
2026-04-26 02:45 23.49474 58.43744 9898 ft 259 kts 86°
2026-04-26 02:45 23.49634 58.45694 9578 ft 256 kts 86°
2026-04-26 02:46 23.49790 58.47590 9257 ft 254 kts 86°
2026-04-26 02:46 23.49947 58.49496 8939 ft 252 kts 86°
2026-04-26 02:46 23.50103 58.51393 8641 ft 254 kts 86°
2026-04-26 02:46 23.50259 58.53313 8332 ft 254 kts 86°
2026-04-26 02:47 23.50418 58.55236 8026 ft 251 kts 87°
2026-04-26 02:47 23.50572 58.57119 7733 ft 252 kts 87°
2026-04-26 02:47 23.50727 58.59025 7437 ft 251 kts 87°
2026-04-26 02:47 23.50879 58.60881 7127 ft 244 kts 86°
2026-04-26 02:48 23.51295 58.62664 6821 ft 241 kts 64°
2026-04-26 02:48 23.52347 58.64051 6544 ft 238 kts 39°
2026-04-26 02:48 23.53801 58.64868 6258 ft 236 kts 17°
2026-04-26 02:48 23.55387 58.65012 5987 ft 231 kts 356°
2026-04-26 02:49 23.56988 58.64839 5699 ft 227 kts 355°
2026-04-26 02:49 23.58541 58.64699 5428 ft 223 kts 356°
2026-04-26 02:49 23.60033 58.64571 5233 ft 210 kts 356°
2026-04-26 02:49 23.61434 58.64436 5152 ft 195 kts 355°
2026-04-26 02:50 23.62740 58.64070 5090 ft 200 kts 328°
2026-04-26 02:50 23.63572 58.62918 4919 ft 193 kts 281°
2026-04-26 02:50 23.63460 58.61504 4749 ft 188 kts 248°
2026-04-26 02:50 23.63125 58.60110 4500 ft 190 kts 266°
2026-04-26 02:51 23.63141 58.58693 4300 ft 187 kts 264°
2026-04-26 02:51 23.63047 58.57291 4094 ft 186 kts 263°
2026-04-26 02:51 23.62955 58.55879 3886 ft 185 kts 264°
2026-04-26 02:51 23.62855 58.54479 3683 ft 185 kts 263°
2026-04-26 02:52 23.62747 58.53070 3474 ft 188 kts 263°
2026-04-26 02:52 23.62638 58.51665 3337 ft 186 kts 263°
2026-04-26 02:52 23.62528 58.50261 3191 ft 184 kts 263°
2026-04-26 02:52 23.62418 58.48864 3055 ft 183 kts 263°
2026-04-26 02:53 23.62311 58.47504 2914 ft 179 kts 263°
2026-04-26 02:53 23.62203 58.46133 2745 ft 185 kts 263°
2026-04-26 02:53 23.62094 58.44746 2560 ft 182 kts 263°
2026-04-26 02:53 23.61988 58.43386 2396 ft 179 kts 263°
2026-04-26 02:54 23.61880 58.42034 2245 ft 179 kts 264°
2026-04-26 02:54 23.61776 58.40716 2067 ft 170 kts 264°
2026-04-26 02:54 23.61674 58.39429 1839 ft 171 kts 263°
2026-04-26 02:54 23.61572 58.38135 1613 ft 166 kts 264°
2026-04-26 02:55 23.61476 58.36926 1398 ft 160 kts 264°
2026-04-26 02:55 23.61379 58.35710 1172 ft 161 kts 264°
2026-04-26 02:55 23.61286 58.34531 950 ft 157 kts 264°
2026-04-26 02:55 23.61190 58.33335 693 ft 160 kts 264°
2026-04-26 02:56 23.61095 58.32127 499 ft 161 kts 263°
2026-04-26 02:56 23.60994 58.30902 308 ft 158 kts 263°
2026-04-26 02:56 23.60901 58.29720 60 ft 155 kts 265°
2026-04-26 02:56 23.60819 58.28633 33 ft 121 kts 265°
2026-04-26 02:57 23.60766 58.27989 33 ft 54 kts 264°
2026-04-26 02:57 23.60741 58.27680 33 ft 39 kts 265°
2026-04-26 02:57 23.60720 58.27393 33 ft 36 kts 264°
2026-04-26 02:57 23.60685 58.27145 33 ft 28 kts 252°
2026-04-26 02:58 23.60613 58.26990 33 ft 19 kts 234°
2026-04-26 02:58 23.60530 58.26858 33 ft 23 kts 235°
2026-04-26 02:58 23.60415 58.26824 33 ft 22 kts 99°
2026-04-26 02:58 23.60430 58.27045 33 ft 36 kts 85°
2026-04-26 02:59 23.60452 58.27324 33 ft 34 kts 85°
2026-04-26 02:59 23.60469 58.27572 33 ft 28 kts 98°
2026-04-26 02:59 23.60374 58.27723 33 ft 22 kts 130°
2026-04-26 02:59 23.60282 58.27843 33 ft 19 kts 130°
2026-04-26 03:00 23.60222 58.27924 33 ft 9 kts 154°
2026-04-26 03:00 23.60176 58.27932 33 ft 4 kts 172°
2026-04-26 03:00 23.60142 58.27936 33 ft 4 kts 174°
2026-04-26 03:00 23.60130 58.27938 33 ft 0 kts 174°